Regional Weather Roundup
Issued by NWS

Home | Current Version | Previous Version | Graphics & Text | Print | Product List | Glossary On
Versions: 1 2 3 4 5 6 7 8 9 10 11 12 13 14 15 16 17 18 19 20 21 22 23 24 25 26 27 28 29 30 31 32 33 34 35 36 37 38 39 40 41 42 43 44 45 46 47 48 49 50
000
ASUS43 KLOT 230721
RWRIL

ILLINOIS REGIONAL WEATHER ROUNDUP
NATIONAL WEATHER SERVICE CHICAGO/ROMEOVILLE IL
200 AM CDT SAT MAY 23 2015

NOTE: "FAIR" INDICATES FEW OR NO CLOUDS BELOW 12,000 FEET WITH NO
SIGNIFICANT WEATHER AND/OR OBSTRUCTIONS TO VISIBILITY.

* THESE STATIONS ARE NOT UNDER NWS QUALITY CONTROL. THEY ALSO MAY NOT
  REPORT WEATHER SUCH AS PRECIPITATION OR FOG.

ILZ001-002-007-009-015-016-024-230800-
NORTHWEST ILLINOIS

CITY           SKY/WX    TMP DP  RH WIND       PRES   REMARKS
MOLINE         MOCLDY    57  48  72 E7        30.23S
STERLING*      MOCLDY    55  37  50 E7        30.26S
SAVANNA*       CLOUDY    59  33  37 SE6       30.25F
$$

ILZ003-004-008-010-011-017-018-230800-
NORTH CENTRAL ILLINOIS

CITY           SKY/WX    TMP DP  RH WIND       PRES   REMARKS
ROCKFORD       CLEAR     52  33  48 CALM      30.30S
FREEPORT*      PTCLDY    48  36  63 E6        30.29S
ROCHELLE*      PTCLDY    51  34  52 SE6       30.28S
DE KALB*       PTCLDY    47  33  57 SE7       30.29S
PERU*          CLOUDY    56  38  51 E7        30.27S
$$

ILZ005-006-012>014-019>023-230800-
NORTHEAST ILLINOIS

CITY           SKY/WX    TMP DP  RH WIND       PRES   REMARKS
CHICAGO-OHARE  MOCLDY    50  32  50 SE5       30.28F
CHICAGO-MIDWAY MOCLDY    55  39  54 E5        30.29S
AURORA         PTCLDY    47  35  63 E3        30.29S
LANSING*       MOCLDY    47  40  77 CALM      30.30S
JOLIET*        MOCLDY    53  41  62 CALM      30.29S
WAUKEGAN       PTCLDY    44  35  70 SW3       30.28F
DUPAGE AIRPORT PTCLDY    48  35  60 CALM      30.28S
KANKAKEE*      MOCLDY    55  39  55 CALM      30.29S
WHEELING       PTCLDY    47  37  68 CALM      30.31S
MORRIS*        MOCLDY    53  38  56 NE3       30.26R
ROMEOVILLE*    MOCLDY    51  38  60 E5        30.29S
NORTHERLY ISL    N/A     52  41  66 S2          N/A
$$

LMZ740>746-230800-
SOUTHERN LAKE MICHIGAN

STATION/POSITION SKY/WX   TEMP    WIND        PRES    VSBY  WAVE
                          AIR SEA DIR/SP/G                  HT/PER
                          (F)     (DEG/KT/KT) (MB)    (MI)  (FT/S)
SOUTHERN BUOY              47 38  190/ 10/ 12 1026.3R         0
HARRISON CRIB              54     170/  9/ 10   N/A
BURNHAM HARBOR             53     160/  1/  2   N/A
CALUMET HARBOR             53      80/  3/  5   N/A
BURNS HARBOR               60     120/ 15/ 18 1026.1S
MICHIGAN CITY              54     120/  9/ 10   N/A
MICHIGAN CITY 6N           54 52  150/  4/  6   N/A           1/ 3
ST. JOSEPH                 56 53  160/  8/  8   N/A           1
$$

ILZ025>027-034>036-040-047-049-050-058-095>099-230800-
WEST-CENTRAL ILLINOIS

CITY           SKY/WX    TMP DP  RH WIND       PRES   REMARKS
QUINCY         CLOUDY    57  53  86 CALM      30.24R
GALESBURG*     MOCLDY    59  51  75 CALM      30.23F
MACOMB*        PTCLDY    58  55  87 CALM      30.25S
JACKSONVILLE*  CLOUDY    62  56  80 CALM      30.24R
PITTSFIELD*    CLOUDY    59  51  75 CALM      30.26R
$$

ILZ028>032-037-038-041>044-048-051>054-059>061-230800-
CENTRAL ILLINOIS

CITY           SKY/WX    TMP DP  RH WIND       PRES   REMARKS
PONTIAC        MOCLDY    57  41  55 E7        30.27F
BLOOMINGTON    CLOUDY    61  40  45 SE9       30.27S
DECATUR        CLOUDY    64  51  62 S8        30.24F
PEORIA         MOCLDY    61  47  59 NE6       30.25S
LACON*         CLOUDY    61  37  41 E8        30.25S
LINCOLN*       MOCLDY    62  52  70 NE5       30.22F
SPRINGFIELD    CLOUDY    61  54  77 N5        30.24S
TAYLORVILLE    CLOUDY    59  54  82 S3        30.25R
$$

ILZ033-039-045-046-055>057-062-063-230800-
EAST-CENTRAL ILLINOIS

CITY           SKY/WX    TMP DP  RH WIND       PRES   REMARKS
CHAMPAIGN      CLOUDY    61  43  51 E8        30.26S
DANVILLE*      CLOUDY    59  39  47 E8        30.25R
RANTOUL*       CLOUDY    62  41  45 E7        30.26S
MATTOON        CLOUDY    58  52  80 SE5       30.24F
PARIS*         CLOUDY    61  52  71 S3        30.28R
$$

ILZ079-100>102-230800-
SOUTHWEST ILLINOIS

CITY           SKY/WX    TMP DP  RH WIND       PRES   REMARKS
ALTON          CLOUDY    61  60  96 CALM      30.26R
BELLEVILLE     CLOUDY    61  58  90 S1        30.25R
CAHOKIA*       CLOUDY    63  55  75 CALM      30.25S
SPARTA*        CLOUDY    61  54  78 CALM      30.27R
$$

ILZ064>066-069>071-074>076-080>082-084>086-088>090-092>094-230800-
SOUTH-CENTRAL ILLINOIS

CITY           SKY/WX    TMP DP  RH WIND       PRES   REMARKS
CARBONDALE     MOCLDY    57  54  89 CALM      30.26R
CAIRO*         PTCLDY    59  57  95 CALM      30.25S
EFFINGHAM*     CLOUDY    58  51  77 CALM      30.27F
MARION         MOCLDY    59  57  94 CALM      30.27R
MT. VERNON     CLOUDY    55  52  88 CALM      30.28R
CENTRALIA*     CLOUDY    58  53  84 CALM      30.27R
SALEM*         CLOUDY    62  55  79 CALM      30.26S
METROPOLIS*    PTCLDY    56  56 100 CALM      30.26R
$$

ILZ067-068-072-073-078-083-087-091-230800-
SOUTHEAST ILLINOIS

CITY           SKY/WX    TMP DP  RH WIND       PRES   REMARKS
LAWRENCEVILLE  CLOUDY    61  54  77 CALM      30.28S
FLORA*         CLOUDY    60  54  81 CALM      30.27S
FAIRFIELD*     CLOUDY    58  56  92 CALM      30.25F
HARRISBURG*    MOCLDY    58  57  99 CALM      30.27S
ROBINSON*      CLOUDY    57  54  88 CALM      30.29R
CARMI*         MOCLDY    58  53  81 CALM      30.26S
$$

ABBREVIATIONS USED IN REMARKS
   TC - TEMPERATURE IN CELSIUS
  WCI - WIND CHILL INDEX
   HX - HEAT INDEX
  VSB - VISIBILITY
$$




USA.gov is the U.S. government's official web portal to all federal, state and local government web resources and services.